GW6198 Weather Reports


time (UTC)temp
F
wind
direction
speed
knots
gust
knots
rain 1hr
in
rain 24hr
in
rain mn
in
humidity
%
barometer
mb
20260506050209 69 69 0.0 1.7 0.00 0.00 0.00 45 1011.3
20260506044700 70 116 0.0 0.9 0.00 0.00 0.00 40 1010.9
20260506044157 71 150 0.0 1.7 0.00 0.00 0.00 39 1011.2
20260506043654 71 166 2.6 3.5 0.00 0.00 0.00 38 1011.2
20260506043152 71 189 3.5 4.3 0.00 0.00 0.00 38 1011.3
20260506042651 70 197 1.7 2.6 0.00 0.00 0.00 43 1011.3
20260506042149 70 195 1.7 1.7 0.00 0.00 0.00 42 1011.1
20260506041652 70 138 0.9 1.7 0.00 0.00 0.00 42 1010.7
20260506041143 71 162 0.9 1.7 0.00 0.00 0.00 41 1010.6
20260506040641 71 177 1.7 2.6 0.00 0.00 0.00 41 1010.6
20260506040138 71 174 2.6 3.5 0.00 0.00 0.00 41 1010.4
20260506035635 71 180 2.6 3.5 0.00 0.00 0.00 40 1010.9
20260506035131 71 183 2.6 3.5 0.00 0.00 0.00 40 1010.4
20260506034628 72 176 2.6 3.5 0.00 0.00 0.00 39 1010.6
20260506034125 72 170 4.3 5.2 0.00 0.00 0.00 38 1010.4
20260506033623 72 170 5.2 7.0 0.00 0.00 0.00 38 1010.3
20260506033120 72 163 5.2 6.1 0.00 0.00 0.00 38 1010.4
20260506032617 72 168 5.2 5.2 0.00 0.00 0.00 38 1010.4
20260506032114 72 168 3.5 3.5 0.00 0.00 0.00 39 1010.3
20260506031611 72 163 1.7 2.6 0.00 0.00 0.00 39 1010.2
20260506031108 72 160 3.5 3.5 0.00 0.00 0.00 39 1010.0
20260506030606 72 153 2.6 5.2 0.00 0.00 0.00 39 1010.0
20260506030103 72 144 1.7 2.6 0.00 0.00 0.00 39 1009.9
20260506025600 73 162 2.6 3.5 0.00 0.00 0.00 38 1009.9
20260506025056 73 166 2.6 2.6 0.00 0.00 0.00 37 1010.0
20260506024553 74 166 1.7 2.6 0.00 0.00 0.00 35 1009.9
20260506024050 74 186 1.7 2.6 0.00 0.00 0.00 36 1009.9
20260506023545 74 170 1.7 1.7 0.00 0.00 0.00 33 1009.9
20260506023043 75 236 0.9 1.7 0.00 0.00 0.00 32 1009.8
20260506022541 75 269 0.0 0.9 0.00 0.00 0.00 32 1009.6
20260506022038 76 216 0.9 1.7 0.00 0.00 0.00 33 1009.7
20260506021535 76 246 1.7 1.7 0.00 0.00 0.00 31 1009.6
20260506021033 76 276 0.9 1.7 0.00 0.00 0.00 30 1009.4
20260506020530 76 333 1.7 2.6 0.00 0.00 0.00 30 1009.6
20260506020027 77 336 1.7 2.6 0.00 0.00 0.00 31 1009.6
20260506015525 77 290 1.7 2.6 0.00 0.00 0.00 30 1009.6
20260506015021 77 254 3.5 3.5 0.00 0.00 0.00 29 1009.7
20260506014519 77 211 1.7 1.7 0.00 0.00 0.00 30 1009.6
20260506014015 77 255 1.7 1.7 0.00 0.00 0.00 29 1009.7
20260506013513 78 254 1.7 1.7 0.00 0.00 0.00 29 1009.7
20260506013009 78 275 0.9 2.6 0.00 0.00 0.00 29 1009.7
20260506012505 78 296 3.5 5.2 0.00 0.00 0.00 28 1009.4
20260506012003 79 323 2.6 3.5 0.00 0.00 0.00 28 1009.4
20260506011500 79 294 3.5 8.7 0.00 0.00 0.00 28 1009.4
20260506010956 79 286 2.6 7.8 0.00 0.00 0.00 28 1009.3
20260506010456 79 298 7.0 9.6 0.00 0.00 0.00 27 1009.4
20260506005951 80 290 4.3 12.2 0.00 0.00 0.00 27 1009.3
20260506005449 80 297 6.1 10.4 0.00 0.00 0.00 27 1009.1
20260506004944 80 307 10.4 11.3 0.00 0.00 0.00 27 1009.3
20260506004442 80 295 5.2 13.9 0.00 0.00 0.00 26 1009.4
20260506003938 80 290 7.8 13.9 0.00 0.00 0.00 26 1009.6
20260506003435 80 288 6.1 13.0 0.00 0.00 0.00 26 1009.6
20260506002931 80 300 5.2 13.0 0.00 0.00 0.00 26 1009.7
20260506002427 80 301 6.1 13.0 0.00 0.00 0.00 26 1009.7
20260506001923 80 301 10.4 15.6 0.00 0.00 0.00 26 1009.8
20260506001420 81 289 14.8 14.8 0.00 0.00 0.00 25 1009.7
20260506000917 81 273 8.7 13.9 0.00 0.00 0.00 25 1009.8
20260506000416 81 286 6.1 18.2 0.00 0.00 0.00 25 1009.9
20260505235911 81 273 8.7 13.9 0.00 0.00 0.00 24 1009.9
20260505235409 82 287 9.6 16.5 0.00 0.00 0.00 24 1009.9
20260505234906 82 286 11.3 16.5 0.00 0.00 0.00 24 1009.8
20260505234404 82 279 12.2 17.4 0.00 0.00 0.00 24 1009.8
20260505233900 82 259 10.4 16.5 0.00 0.00 0.00 24 1009.9
20260505233358 82 273 10.4 16.5 0.00 0.00 0.00 25 1009.8
20260505232855 82 245 9.6 13.9 0.00 0.00 0.00 25 1009.7
20260505232353 82 272 11.3 15.6 0.00 0.00 0.00 24 1009.8
20260505231849 82 291 12.2 14.8 0.00 0.00 0.00 24 1009.6
20260505231347 82 278 13.0 18.2 0.00 0.00 0.00 24 1009.7
20260505230845 82 285 10.4 20.9 0.00 0.00 0.00 24 1009.6
20260505230342 83 267 13.9 18.2 0.00 0.00 0.00 24 1009.8
20260505225839 83 291 14.8 18.2 0.00 0.00 0.00 23 1009.6
20260505225336 83 271 9.6 14.8 0.00 0.00 0.00 23 1009.6
20260505224837 83 286 11.3 15.6 0.00 0.00 0.00 23 1009.4
20260505224335 83 278 7.0 19.1 0.00 0.00 0.00 23 1009.4
20260505223832 83 279 8.7 19.1 0.00 0.00 0.00 23 1009.8
20260505223329 84 288 11.3 18.2 0.00 0.00 0.00 22 1009.4
20260505222824 83 260 15.6 22.6 0.00 0.00 0.00 22 1009.7
20260505222321 83 294 12.2 18.2 0.00 0.00 0.00 22 1009.6
20260505221818 84 281 13.0 20.9 0.00 0.00 0.00 21 1010.2
20260505221314 84 272 15.6 19.1 0.00 0.00 0.00 21 1009.7
20260505220812 84 272 7.0 17.4 0.00 0.00 0.00 22 1009.6
20260505220309 84 263 18.2 19.1 0.00 0.00 0.00 22 1009.4
20260505215807 84 275 15.6 17.4 0.00 0.00 0.00 22 1009.8
20260505215305 84 256 10.4 20.9 0.00 0.00 0.00 21 1009.8
20260505214802 85 273 13.0 18.2 0.00 0.00 0.00 21 1009.7
20260505214259 85 271 9.6 11.3 0.00 0.00 0.00 21 1009.4
20260505213756 84 264 6.1 7.8 0.00 0.00 0.00 21 1009.4
20260505213254 84 293 7.0 9.6 0.00 0.00 0.00 20 1009.4
20260505212749 84 283 8.7 15.6 0.00 0.00 0.00 20 1009.9
20260505212247 84 261 10.4 19.1 0.00 0.00 0.00 20 1009.9
20260505211744 85 263 8.7 16.5 0.00 0.00 0.00 20 1009.9
20260505211241 85 259 11.3 14.8 0.00 0.00 0.00 19 1010.0
20260505210737 85 264 7.0 19.1 0.00 0.00 0.00 20 1010.2
20260505210234 85 280 13.0 16.5 0.00 0.00 0.00 20 1009.8
20260505205732 85 261 12.2 12.2 0.00 0.00 0.00 19 1009.8
20260505205230 85 242 10.4 14.8 0.00 0.00 0.00 19 1009.8
20260505204726 87 281 4.3 17.4 0.00 0.00 0.00 19 1010.0
20260505204224 86 268 11.3 16.5 0.00 0.00 0.00 20 1010.1
20260505203721 85 260 8.7 13.9 0.00 0.00 0.00 20 1010.0
20260505203218 85 279 10.4 16.5 0.00 0.00 0.00 20 1010.1
20260505202713 87 280 10.4 17.4 0.00 0.00 0.00 20 1010.2
20260505202210 87 257 13.0 17.4 0.00 0.00 0.00 20 1010.4
20260505201706 85 295 13.0 15.6 0.00 0.00 0.00 21 1010.4
20260505201204 86 284 6.1 13.9 0.00 0.00 0.00 21 1010.4
20260505200702 86 247 7.8 9.6 0.00 0.00 0.00 21 1009.8
20260505200159 84 271 4.3 11.3 0.00 0.00 0.00 22 1010.1
20260505195654 84 260 10.4 13.0 0.00 0.00 0.00 22 1010.4
20260505195152 85 276 10.4 13.0 0.00 0.00 0.00 22 1010.5
20260505194649 85 271 4.3 11.3 0.00 0.00 0.00 22 1010.4
20260505194145 84 236 6.1 13.9 0.00 0.00 0.00 22 1010.5
20260505193642 85 264 8.7 17.4 0.00 0.00 0.00 21 1010.2
20260505193139 86 284 8.7 14.8 0.00 0.00 0.00 22 1010.3
20260505192638 85 290 5.2 13.9 0.00 0.00 0.00 22 1010.4
20260505192135 85 296 13.0 15.6 0.00 0.00 0.00 21 1010.4
20260505191633 85 276 10.4 16.5 0.00 0.00 0.00 22 1010.5
20260505191131 85 290 10.4 19.1 0.00 0.00 0.00 21 1010.5
20260505190626 86 289 4.3 17.4 0.00 0.00 0.00 21 1010.6
20260505190121 87 289 13.0 18.2 0.00 0.00 0.00 21 1010.5
20260505185619 86 314 11.3 18.2 0.00 0.00 0.00 21 1010.9
20260505185115 85 301 11.3 13.9 0.00 0.00 0.00 21 1010.5
20260505184611 85 296 9.6 16.5 0.00 0.00 0.00 22 1010.4
20260505184108 86 299 19.1 20.9 0.00 0.00 0.00 21 1010.6
20260505183605 86 309 13.0 16.5 0.00 0.00 0.00 22 1010.9
20260505183103 85 290 11.3 18.2 0.00 0.00 0.00 22 1010.9
20260505182558 86 311 14.8 24.3 0.00 0.00 0.00 22 1010.9
20260505182055 86 296 19.1 19.1 0.00 0.00 0.00 22 1010.7
20260505181552 85 284 9.6 16.5 0.00 0.00 0.00 23 1010.7
20260505181049 86 256 9.6 14.8 0.00 0.00 0.00 23 1010.6
20260505180545 85 289 7.8 15.6 0.00 0.00 0.00 23 1010.9
20260505180044 85 276 8.7 14.8 0.00 0.00 0.00 23 1010.9
20260505175543 85 278 15.6 17.4 0.00 0.00 0.00 21 1010.7
20260505175041 85 302 12.2 16.5 0.00 0.00 0.00 22 1011.0
20260505174537 85 303 12.2 18.2 0.00 0.00 0.00 22 1011.0
20260505174033 85 283 13.9 20.9 0.00 0.00 0.00 22 1011.0
20260505173530 85 298 13.9 20.0 0.00 0.00 0.00 22 1011.0
20260505173027 85 303 15.6 17.4 0.00 0.00 0.00 23 1011.0
20260505172525 84 315 14.8 20.0 0.00 0.00 0.00 23 1011.0
20260505172021 84 291 11.3 20.9 0.00 0.00 0.00 23 1011.0
20260505171516 85 299 13.0 17.4 0.00 0.00 0.00 23 1011.2
20260505171014 84 331 8.7 17.4 0.00 0.00 0.00 23 1010.9
20260505170510 84 296 13.0 23.5 0.00 0.00 0.00 23 1011.0
20260505170006 84 305 11.3 17.4 0.00 0.00 0.00 23 1011.1
20260505165502 84 294 8.7 13.9 0.00 0.00 0.00 23 1011.0
20260505164958 83 283 7.0 15.6 0.00 0.00 0.00 24 1011.1
20260505164454 83 279 7.0 15.6 0.00 0.00 0.00 24 1011.3
20260505163952 83 244 12.2 14.8 0.00 0.00 0.00 24 1011.2
20260505163450 83 246 10.4 16.5 0.00 0.00 0.00 24 1011.1
20260505162949 83 251 12.2 12.2 0.00 0.00 0.00 25 1011.2
20260505162445 83 255 9.6 10.4 0.00 0.00 0.00 26 1011.3
20260505161942 83 290 11.3 16.5 0.00 0.00 0.00 25 1011.2
20260505161438 82 287 3.5 11.3 0.00 0.00 0.00 26 1011.0
20260505160936 82 285 7.8 10.4 0.00 0.00 0.00 26 1011.2
20260505160434 82 275 6.1 13.0 0.00 0.00 0.00 26 1011.2
20260505152910 78 264 3.5 8.7 0.00 0.00 0.00 41 1010.7
20260505152408 77 267 3.5 8.7 0.00 0.00 0.00 42 1010.9
20260505151907 76 241 9.6 11.3 0.00 0.00 0.00 44 1010.6
20260505151404 76 241 6.1 9.6 0.00 0.00 0.00 45 1010.7
20260505150901 75 268 5.2 7.0 0.00 0.00 0.00 47 1010.6
20260505150359 75 254 5.2 9.6 0.00 0.00 0.00 47 1010.6
20260505140328 70 227 5.2 7.8 0.00 0.00 0.00 68 1010.2
20260505130252 63 241 6.1 6.1 0.00 0.00 0.00 86 1010.0
20260505124742 62 228 3.5 5.2 0.00 0.00 0.00 87 1009.6
20260505124239 62 235 3.5 5.2 0.00 0.00 0.00 87 1009.6
20260505123734 62 236 2.6 5.2 0.00 0.00 0.00 87 1009.3
20260505123232 61 233 4.3 4.3 0.00 0.00 0.00 87 1009.3
20260505122728 61 217 3.5 6.1 0.00 0.00 0.00 88 1009.4
20260505122225 61 213 2.6 5.2 0.00 0.00 0.00 88 1009.2
20260505121722 61 225 1.7 3.5 0.00 0.00 0.00 88 1009.3
20260505121219 61 219 1.7 2.6 0.00 0.00 0.00 88 1009.3
20260505120715 61 214 2.6 3.5 0.00 0.00 0.00 88 1009.4
20260505120211 61 208 1.7 2.6 0.00 0.00 0.00 88 1009.1
20260505115704 60 209 0.9 1.7 0.00 0.00 0.00 88 1009.1
20260505115203 61 214 1.7 2.6 0.00 0.00 0.00 88 1009.1
20260505114659 61 182 1.7 2.6 0.00 0.00 0.00 87 1009.1
20260505114155 61 176 1.7 1.7 0.00 0.00 0.00 87 1009.0
20260505113652 61 177 0.0 0.9 0.00 0.00 0.00 86 1009.1
20260505113149 62 172 0.9 1.7 0.00 0.00 0.00 86 1009.1
20260505112645 62 136 0.0 2.6 0.00 0.00 0.00 86 1009.0
20260505112143 62 177 0.9 1.7 0.00 0.00 0.00 86 1009.1
20260505111642 62 253 1.7 1.7 0.00 0.00 0.00 85 1009.2
20260505111139 62 226 1.7 1.7 0.00 0.00 0.00 85 1009.0
20260505110635 62 248 2.6 2.6 0.00 0.00 0.00 85 1009.1
20260505110132 62 269 0.9 1.7 0.00 0.00 0.00 84 1009.0
20260505102108 65 222 4.3 5.2 0.00 0.00 0.00 80 1009.0
20260505101606 65 239 3.5 5.2 0.00 0.00 0.00 79 1008.9
20260505101102 66 233 5.2 5.2 0.00 0.00 0.00 79 1008.8
20260505100559 66 244 5.2 8.7 0.00 0.00 0.00 78 1008.7
20260505100056 66 230 5.2 7.0 0.00 0.00 0.00 78 1008.7
20260505095552 66 233 6.1 7.0 0.00 0.00 0.00 78 1008.6
20260505095049 66 237 4.3 5.2 0.00 0.00 0.00 78 1008.6
20260505094545 67 242 4.3 7.0 0.00 0.00 0.00 77 1008.9
20260505094041 67 241 5.2 7.0 0.00 0.00 0.00 77 1008.5
20260505093538 67 237 5.2 7.0 0.00 0.00 0.00 76 1008.6
20260505093036 67 220 6.1 7.8 0.00 0.00 0.00 76 1008.5
20260505092533 68 200 1.7 6.1 0.00 0.00 0.00 75 1008.6
20260505092031 68 225 4.3 9.6 0.00 0.00 0.00 75 1008.5
20260505091527 68 209 5.2 8.7 0.00 0.00 0.00 75 1008.6
20260505091026 68 236 4.3 10.4 0.00 0.00 0.00 75 1008.4
20260505090524 68 195 4.3 10.4 0.00 0.00 0.00 75 1008.6
20260505090021 68 217 3.5 9.6 0.00 0.00 0.00 74 1008.6
20260505085519 68 235 7.8 10.4 0.00 0.00 0.00 74 1008.7
20260505085017 68 233 7.8 8.7 0.00 0.00 0.00 74 1008.6
20260505084515 68 230 7.8 9.6 0.00 0.00 0.00 74 1008.5
20260505084012 68 218 6.1 9.6 0.00 0.00 0.00 73 1008.7
20260505083509 68 186 4.3 7.0 0.00 0.00 0.00 73 1008.7
20260505083006 69 229 5.2 11.3 0.00 0.00 0.00 72 1008.8
20260505082502 69 202 4.3 9.6 0.00 0.00 0.00 72 1008.7
20260505081959 69 206 4.3 10.4 0.00 0.00 0.00 72 1008.7
20260505081455 69 221 7.0 11.3 0.00 0.00 0.00 71 1008.7
20260505080952 69 216 6.1 10.4 0.00 0.00 0.00 71 1008.5
20260505080448 69 217 4.3 13.9 0.00 0.00 0.00 71 1008.5
20260505075944 69 222 5.2 6.1 0.00 0.00 0.00 70 1008.7
20260505075440 69 206 5.2 7.8 0.00 0.00 0.00 70 1008.6
20260505074938 69 209 4.3 10.4 0.00 0.00 0.00 70 1008.8
20260505074436 70 192 4.3 9.6 0.00 0.00 0.00 69 1008.7
20260505073932 70 184 8.7 13.0 0.00 0.00 0.00 69 1009.1
20260505073430 70 230 7.8 9.6 0.00 0.00 0.00 69 1009.1
20260505072927 70 232 6.1 10.4 0.00 0.00 0.00 68 1009.0
20260505072423 70 222 5.2 12.2 0.00 0.00 0.00 68 1009.0
20260505071919 70 224 5.2 7.8 0.00 0.00 0.00 68 1009.0
20260505071415 70 219 3.5 7.8 0.00 0.00 0.00 67 1009.1
20260505070914 71 215 5.2 11.3 0.00 0.00 0.00 66 1009.0
20260505070409 71 233 8.7 12.2 0.00 0.00 0.00 65 1009.1
20260505065905 71 193 3.5 9.6 0.00 0.00 0.00 64 1009.1
20260505065402 71 217 4.3 11.3 0.00 0.00 0.00 64 1009.0
20260505064859 71 217 5.2 12.2 0.00 0.00 0.00 63 1009.2
20260505064356 72 200 7.0 9.6 0.00 0.00 0.00 63 1009.2
20260505063855 72 204 3.5 9.6 0.00 0.00 0.00 62 1009.0
20260505063355 72 212 6.1 13.0 0.00 0.00 0.00 62 1009.4
20260505062852 72 200 6.1 10.4 0.00 0.00 0.00 62 1009.3
20260505062349 72 237 8.7 12.2 0.00 0.00 0.00 61 1009.3
20260505061846 72 206 7.8 10.4 0.00 0.00 0.00 60 1009.3
20260505061344 72 201 6.1 9.6 0.00 0.00 0.00 60 1009.1
20260505060842 73 196 2.6 9.6 0.00 0.00 0.00 60 1009.2
20260505060338 73 229 5.2 6.1 0.00 0.00 0.00 59 1009.6
20260505055834 73 184 3.5 7.8 0.00 0.00 0.00 59 1009.6
20260505055330 73 193 7.0 12.2 0.00 0.00 0.00 58 1009.4
20260505054828 73 193 8.7 10.4 0.00 0.00 0.00 57 1009.6
20260505054325 73 209 7.0 9.6 0.00 0.00 0.00 57 1009.4
20260505053823 74 193 7.8 13.0 0.00 0.00 0.00 56 1009.4
20260505053320 73 212 11.3 13.9 0.00 0.00 0.00 56 1009.6
20260505052817 73 205 7.0 8.7 0.00 0.00 0.00 56 1009.7
20260505052313 73 212 5.2 9.6 0.00 0.00 0.00 55 1010.0
20260505051811 73 208 5.2 8.7 0.00 0.00 0.00 55 1009.8
20260505051308 73 218 7.8 11.3 0.00 0.00 0.00 54 1009.8
20260505050806 74 207 3.5 8.7 0.00 0.00 0.00 53 1009.8